Weather History for St. Petersburg, FL

Change the Weather History Date:

Tuesday, July 30, 2013

  Actual Average Record
Temperature  
Mean Temperature 88 °F -  
Max Temperature 96 °F 90 °F 96 °F (2013)
Min Temperature 82 °F 77 °F 69 °F (1953)
Cooling Degree Days 24    
Growing Degree Days 38 (Base 50)    
Moisture  
Dew Point 75 °F    
Average Humidity 69    
Maximum Humidity 82    
Minimum Humidity 47    
Precipitation  
Precipitation 0.03 in - - ()
Sea Level Pressure  
Sea Level Pressure 30.12 in    
Wind  
Wind Speed 5 mph (ESE)    
Max Wind Speed 24 mph    
Max Gust Speed 32 mph    
Visibility 10 miles    
Events Rain    
Averages and records for this station are not official NWS values.
T = Trace of Precipitation, MM = Missing Value Source: NWS Daily Summary

Daily Weather History Graph

Daily Weather History Graph

Search for Another Location

Airport:

Trip Planner

Search our weather history database for the weather conditions in past years. The results will help you decide how hot, cold, wet, or windy it might be!

Date:

Astronomy

Jul. 30, 2013 Rise Set
Actual Time 6:52 AM EDT 8:20 PM EDT
Civil Twilight 6:27 AM EDT 8:46 PM EDT
Nautical Twilight 5:56 AM EDT 9:16 PM EDT
Astronomical Twilight 5:25 AM EDT 9:48 PM EDT
Moon 1:05 AM EDT (7/30) 2:41 PM EDT (7/30)
Length of Visible Light 14h 19m
Length of Day
13h 28m
Last Quarter, 41% of the Moon is Illuminated
Jul 30
Last Quarter
Aug 6
New
Aug 14
First Quarter
Aug 20
Full
Aug 28
Last Quarter

Hourly Weather History & Observations

Time (EDT) Temp. Heat Index Dew Point Humidity Pressure Visibility Wind Dir Wind Speed Gust Speed Precip Events Conditions
12:53 AM 82.9 °F 89.4 °F 73.9 °F 74% 30.14 in 10.0 mi South 5.8 mph - N/A   Mostly Cloudy
1:53 AM 84.0 °F 91.2 °F 73.9 °F 72% 30.12 in 10.0 mi SSE 4.6 mph - N/A   Clear
2:53 AM 82.9 °F 89.4 °F 73.9 °F 74% 30.12 in 10.0 mi ESE 5.8 mph - N/A   Clear
3:53 AM 82.9 °F 89.4 °F 73.9 °F 74% 30.11 in 10.0 mi SE 3.5 mph - N/A   Clear
4:53 AM 82.9 °F 88.8 °F 73.0 °F 72% 30.11 in 10.0 mi ESE 6.9 mph - N/A   Clear
5:53 AM 82.0 °F 87.9 °F 73.9 °F 76% 30.11 in 10.0 mi SE 6.9 mph - N/A   Clear
6:53 AM 82.0 °F 87.9 °F 73.9 °F 76% 30.13 in 10.0 mi ESE 8.1 mph - N/A   Clear
7:53 AM 82.9 °F 90.8 °F 75.9 °F 79% 30.14 in 10.0 mi ESE 6.9 mph - N/A   Clear
8:53 AM 84.0 °F 93.7 °F 77.0 °F 79% 30.16 in 10.0 mi SE 5.8 mph - N/A   Clear
9:53 AM 84.9 °F 96.6 °F 78.1 °F 80% 30.17 in 10.0 mi SE 4.6 mph - N/A   Clear
10:53 AM 86.0 °F 96.9 °F 77.0 °F 74% 30.17 in 10.0 mi East 3.5 mph - N/A   Clear
11:32 AM 87.1 °F 97.3 °F 75.9 °F 69% 30.17 in 10.0 mi ESE 4.6 mph - N/A   Partly Cloudy
11:53 AM 88.0 °F 98.5 °F 75.9 °F 67% 30.17 in 10.0 mi East 4.6 mph - N/A   Clear
12:53 PM 90.0 °F 99.0 °F 73.9 °F 59% 30.15 in 10.0 mi East 4.6 mph - N/A   Clear
1:53 PM 91.0 °F 100.4 °F 73.9 °F 57% 30.13 in 10.0 mi East 3.5 mph - N/A   Clear
2:53 PM 93.0 °F 103.2 °F 73.9 °F 54% 30.12 in 10.0 mi ENE 3.5 mph - N/A   Clear
3:53 PM 93.9 °F 103.4 °F 73.0 °F 51% 30.09 in 10.0 mi Calm Calm - N/A   Clear
4:53 PM 93.9 °F 102.1 °F 72.0 °F 49% 30.07 in 10.0 mi Calm Calm - N/A   Clear
5:53 PM 95.0 °F 103.2 °F 72.0 °F 47% 30.06 in 10.0 mi ENE 3.5 mph - N/A   Clear
6:53 PM 88.0 °F 97.5 °F 75.0 °F 65% 30.08 in 10.0 mi SSW 24.2 mph 32.2 mph N/A   Mostly Cloudy
7:53 PM 84.9 °F 94.1 °F 75.9 °F 74% 30.10 in 7.0 mi North 8.1 mph - 0.02 in Rain Light Rain
8:53 PM 82.9 °F 91.8 °F 77.0 °F 82% 30.11 in 10.0 mi North 5.8 mph - 0.01 in   Clear
9:53 PM 84.0 °F 93.7 °F 77.0 °F 79% 30.12 in 10.0 mi WSW 3.5 mph - N/A   Clear
10:53 PM 84.9 °F 95.3 °F 77.0 °F 77% 30.14 in 10.0 mi Calm Calm - N/A   Clear
11:53 PM 84.9 °F 95.3 °F 77.0 °F 77% 30.13 in 10.0 mi Calm Calm - N/A   Clear